Location: Innerarity Island Observatory
(30.3139°N, 87.4867°W)
Time: 09:22:51
(UTC-05:00)

JAS-2 - Visible Passes

Search period start: 02 August 2015 00:00
Search period end: 12 August 2015 00:00
Orbit: 801 x 1321 km, 98.5° (Epoch: 02 August)

Date Brightness Start Highest point End Pass type
(mag) Time Alt. Az. Time Alt. Az. Time Alt. Az.
02 Aug 12.2 02:26:52 10° ENE 02:30:10 14° E 02:34:04 10° ESE visible
02 Aug 10.0 04:08:15 10° NNE 04:16:11 89° WNW 04:21:11 25° SSW visible
03 Aug 11.2 03:14:00 10° NNE 03:21:03 37° E 03:25:22 22° SSE visible
03 Aug 10.7 04:58:49 10° N 05:06:01 39° WNW 05:11:50 14° SW visible
04 Aug 12.3 02:22:39 10° ENE 02:25:14 12° E 02:28:28 10° ESE visible
04 Aug 10.0 04:03:26 10° NNE 04:11:22 86° ESE 04:16:01 27° SSW visible
05 Aug 11.3 03:09:18 10° NNE 03:16:11 34° E 03:20:12 22° SE visible
05 Aug 10.6 04:53:56 10° N 05:01:13 42° WNW 05:06:41 16° SW visible
06 Aug 12.3 02:18:45 10° ENE 02:20:17 11° E 02:22:34 10° ESE visible
06 Aug 10.1 03:58:38 10° NNE 04:06:33 82° ESE 04:10:51 29° S visible
06 Aug 11.5 05:45:48 10° NNW 05:50:44 17° WNW 05:55:07 10° W visible
07 Aug 11.4 03:04:38 10° NE 03:11:18 32° E 03:15:02 21° SE visible
07 Aug 10.5 04:49:03 10° N 04:56:25 44° WNW 05:01:30 19° SW visible
08 Aug 10.1 03:53:52 10° NNE 04:01:43 77° ESE 04:05:40 31° S visible
08 Aug 11.4 05:40:47 10° NNW 05:45:57 19° WNW 05:50:33 10° WSW visible
09 Aug 11.4 02:59:59 10° NE 03:06:24 29° E 03:09:50 21° SE visible
09 Aug 10.4 04:44:12 10° N 04:51:37 47° WNW 04:56:19 21° SW visible
10 Aug 10.1 03:49:04 10° NNE 03:56:53 72° E 04:00:29 34° S visible
10 Aug 11.4 05:35:48 10° NNW 05:41:09 20° WNW 05:45:57 10° WSW visible
11 Aug 11.5 02:55:21 10° NE 03:01:30 27° E 03:04:38 21° SE visible
11 Aug 10.3 04:39:21 10° N 04:46:49 50° WNW 04:51:07 24° SW visible
